Theta_e
295 290 285 287 289 289 288 286 284 286 291 287 284 283 285 286 285 282 281 282 283 284 287 290 292 293 292 293 293 293 293 294 295 294 293 293 293 294 295 296 297 297 297 297
290 286 291 294 291 289 288 285 283 287 291 286 284 283 285 286 284 282 283 282 282 286 288 290 291 292 291 292 292 294 294 294 294 295 295 295 294 294 295 296 297 297 297 297
286 288 295 294 289 287 287 283 282 283 287 287 284 280 282 285 283 284 283 283 285 286 287 289 290 290 291 291 293 293 294 294 294 295 295 295 295 295 294 295 295 296 297 297
288 290 290 289 287 287 283 289 287 286 283 279 285 274 276 278 279 280 280 283 285 286 288 289 289 289 291 292 294 294 294 294 295 295 295 294 293 292 294 295 296 297 297 296
286 287 286 286 287 288 286 289 286 286 283 281 281 274 274 278 277 279 280 283 285 287 288 288 288 290 292 293 293 293 294 295 296 296 295 294 293 294 295 295 294 295 296 297
288 291 288 286 289 290 289 285 288 286 283 274 279 275 271 273 277 279 282 283 285 287 288 288 290 292 292 293 293 294 294 294 295 295 295 294 293 293 293 293 293 294 295 296
286 286 288 289 285 287 284 279 274 275 274 273 279 274 272 277 280 280 281 283 285 287 287 287 289 290 291 291 292 294 294 293 294 294 294 294 294 293 293 293 293 293 293 294
280 282 284 288 283 280 281 278 272 272 271 272 279 271 273 279 281 283 284 284 286 287 287 288 289 290 291 292 292 293 293 293 293 294 294 295 296 295 295 296 296 295 294 294
279 281 287 288 287 283 280 275 280 274 274 271 272 274 279 281 280 282 282 284 285 286 286 288 290 290 291 292 292 292 293 293 294 295 296 296 297 296 295 295 295 296 296 297
282 278 285 288 287 285 281 282 274 273 265 267 270 268 269 275 277 280 281 282 285 285 286 287 289 290 291 292 292 293 293 293 294 295 296 296 296 296 295 295 294 295 296 299
282 281 281 284 279 277 278 276 276 275 272 265 265 269 276 276 279 279 281 283 284 284 285 287 289 290 291 292 292 292 292 293 293 295 296 296 296 296 295 293 293 294 296 297
284 281 275 277 282 284 280 276 275 268 267 270 267 269 279 280 280 281 282 284 284 285 286 288 289 290 290 290 291 291 292 292 293 296 295 296 296 295 293 292 293 294 295 296
284 279 275 275 278 281 278 278 278 275 271 267 262 268 281 280 281 282 282 284 283 285 285 287 288 289 289 290 289 290 291 292 293 294 294 295 295 294 294 293 293 294 297 297
287 280 277 274 276 277 275 277 277 274 265 265 269 270 275 278 279 281 283 282 283 284 285 287 287 288 289 290 289 289 290 292 293 293 292 293 294 295 294 293 293 293 296 297
283 278 278 278 280 279 277 277 277 270 273 266 271 272 275 278 279 281 283 283 283 283 285 287 286 288 289 289 289 290 290 291 293 292 291 292 294 295 294 293 293 293 293 295
282 278 278 277 280 278 276 278 278 277 276 274 274 273 278 281 282 283 282 282 282 282 285 286 287 288 288 288 289 290 290 291 293 291 290 291 293 293 294 292 292 292 292 292
280 278 275 274 277 276 274 276 276 275 276 275 271 274 279 280 282 282 281 282 282 282 286 286 287 287 288 289 290 289 290 292 292 291 290 290 291 291 292 293 291 290 290 291
280 277 275 271 274 271 276 280 279 276 278 278 277 279 280 281 283 283 283 282 282 283 286 286 287 287 289 290 290 291 291 292 291 290 290 289 290 290 290 292 291 290 290 289
280 279 271 271 272 274 276 278 276 274 274 280 278 280 281 283 281 278 284 284 283 284 288 288 288 288 289 290 290 290 290 292 291 289 290 289 289 289 288 288 290 290 289 289
281 280 276 269 269 273 276 279 282 280 272 280 280 280 281 281 274 277 283 284 284 286 288 288 288 289 289 290 291 290 290 291 291 289 290 290 289 289 288 288 288 289 288 288
273 272 271 272 268 275 278 281 283 270 271 280 282 281 281 277 278 282 285 284 285 287 289 289 288 288 289 290 290 289 289 290 292 290 290 290 289 289 289 288 288 288 287 287
277 273 271 271 267 273 281 280 274 277 280 281 282 283 281 281 282 284 284 283 284 288 288 288 287 287 289 290 290 289 289 292 292 290 289 289 288 290 290 288 288 288 287 287
276 279 277 278 278 280 281 281 283 283 281 281 282 283 282 282 282 283 282 282 284 288 287 287 287 287 289 290 290 289 291 293 291 289 288 288 288 289 290 289 288 288 288 287
278 279 275 277 278 279 281 282 283 284 283 284 283 283 283 282 282 282 282 282 284 288 286 287 286 287 287 289 290 291 291 294 290 289 288 289 288 287 288 290 290 290 289 287
278 279 277 277 278 280 280 282 284 285 286 284 284 284 284 283 282 281 281 282 284 287 287 287 286 287 287 289 290 291 292 294 289 289 288 289 288 287 286 287 289 290 292 292
279 278 277 277 280 280 279 283 286 285 284 283 283 283 284 283 281 282 281 282 286 286 287 286 286 287 288 289 290 291 293 294 290 288 289 289 288 288 287 286 286 292 295 296
Wind_Speed
8 12 6 7 5 5 7 1 2 4 7 7 7 9 5 4 6 6 7 11 10 10 9 13 17 16 15 20 19 18 19 18 16 12 10 11 11 6 9 11 16 14 12 12
8 9 10 3 13 7 5 4 5 8 5 9 8 7 4 1 5 5 11 9 9 15 19 18 20 19 20 21 14 23 18 19 16 13 11 10 10 10 11 11 13 15 15 14
9 5 7 6 7 11 3 5 1 5 4 8 12 3 3 3 6 10 7 7 11 20 20 22 23 22 20 17 22 20 20 20 17 18 13 12 10 10 12 12 11 12 15 16
8 7 7 5 4 7 5 1 10 7 2 3 6 1 3 6 8 8 9 15 17 19 19 21 22 24 23 20 22 21 20 20 19 19 14 17 13 13 12 12 11 12 15 16
2 5 8 6 6 7 9 21 13 4 7 6 3 6 7 7 11 14 13 15 19 19 20 22 24 21 19 22 20 19 21 20 20 18 16 13 14 12 11 11 15 14 14 15
4 2 5 4 10 5 15 8 7 6 4 4 6 6 6 7 9 13 15 19 20 21 23 21 23 20 23 23 20 20 21 21 19 18 18 17 18 17 14 14 12 11 10 11
2 4 1 5 7 8 10 8 6 7 7 3 1 9 1 6 7 7 16 20 20 21 17 23 23 23 23 24 23 20 21 21 21 20 19 18 18 17 17 16 12 13 10 9
5 5 7 9 3 4 5 6 5 3 4 7 8 4 4 2 6 14 16 17 19 21 20 22 22 22 21 23 22 22 22 22 22 21 21 18 17 12 12 13 12 11 11 11
5 3 1 2 3 5 7 6 4 2 3 3 2 5 4 17 15 17 19 21 22 17 22 23 23 22 21 22 23 22 22 22 22 22 19 19 15 17 15 17 14 11 15 11
3 2 2 3 6 9 6 2 6 5 5 6 6 3 5 11 18 20 23 23 24 22 23 23 22 23 21 21 21 22 23 23 22 21 18 17 18 18 17 15 16 17 18 15
3 3 2 6 7 4 7 6 5 3 4 3 5 2 5 6 15 20 21 21 19 22 21 21 21 20 20 21 22 21 22 24 23 20 19 19 18 18 17 16 16 16 16 8
3 3 4 2 0 3 4 3 4 6 7 1 4 7 6 16 16 17 20 22 19 20 20 20 19 21 20 21 21 21 22 22 22 20 21 19 19 18 18 17 18 16 13 5
4 4 3 1 4 2 5 4 3 3 4 3 4 8 11 14 18 18 19 17 20 22 23 22 21 21 20 20 21 21 21 22 21 19 20 19 19 19 19 20 20 19 10 5
1 3 6 6 4 3 0 3 2 5 4 4 6 9 8 17 20 20 20 16 20 20 21 20 22 20 20 19 22 21 20 19 20 19 21 20 19 19 19 19 20 20 16 10
4 3 2 3 5 2 1 2 4 4 5 5 7 8 7 15 16 17 17 19 22 23 23 20 23 21 21 20 21 21 20 20 19 18 20 20 18 17 19 20 19 19 19 16
3 1 2 2 3 3 1 3 4 3 1 4 7 7 5 12 13 18 13 22 22 22 22 22 22 22 21 21 20 21 21 19 17 17 19 19 18 17 16 19 19 18 19 18
2 3 3 1 3 1 3 2 2 1 2 4 3 6 8 14 16 17 14 19 22 23 20 23 21 20 19 18 19 20 20 19 16 15 17 19 18 18 18 16 19 20 20 18
3 3 3 3 2 4 4 2 3 1 3 4 4 7 7 9 14 12 10 17 20 21 18 20 17 18 17 17 18 19 18 18 16 16 15 18 17 17 16 16 15 16 17 18
4 4 3 4 1 1 3 2 1 2 1 3 3 7 7 10 8 5 15 17 17 19 16 16 17 17 16 17 18 18 16 17 16 17 16 17 17 17 17 17 16 15 14 15
3 5 5 3 4 4 2 3 4 4 2 3 3 5 7 10 11 10 19 16 18 16 15 17 18 16 15 16 16 17 16 19 18 17 15 12 16 16 17 15 15 13 13 15
3 4 4 0 1 6 3 5 5 5 6 2 3 4 6 5 4 10 15 16 15 14 17 20 17 15 15 16 16 17 17 19 16 13 13 12 15 15 15 14 13 13 12 13
5 5 3 3 4 4 6 3 5 5 1 2 3 5 5 6 8 12 14 15 16 16 18 19 15 15 15 15 15 16 17 18 14 12 13 13 9 13 12 13 12 12 12 13
1 7 5 8 6 2 4 4 4 5 3 1 2 4 5 6 8 11 12 13 14 14 15 16 14 15 15 15 15 16 17 18 13 12 13 12 9 10 13 12 12 10 11 10
3 3 3 4 1 6 6 5 5 4 4 0 2 4 5 7 8 10 11 12 13 13 17 15 16 14 15 14 15 15 17 17 13 12 12 11 10 9 8 9 10 11 10 9
5 5 5 1 3 5 4 5 7 5 4 4 4 4 6 6 7 6 9 11 11 11 13 14 14 13 14 14 14 15 17 17 13 11 10 10 8 9 7 6 7 10 13 14
6 8 6 6 9 6 5 7 7 6 5 3 3 5 5 5 7 6 9 9 9 13 13 13 14 14 14 14 13 15 15 16 10 10 9 9 7 7 7 7 8 18 21 23
Wind_Direction
26 58 29 15 41 281 247 194 53 342 170 106 118 124 133 112 45 25 3 6 332 318 312 332 335 332 338 333 333 345 338 326 334 323 323 315 303 322 311 304 294 278 270 261
44 42 324 85 19 348 36 67 0 300 338 98 132 124 140 187 58 47 19 329 321 343 345 343 339 343 341 337 356 338 334 340 328 321 319 319 310 303 297 295 292 293 291 274
89 321 334 49 19 7 321 138 266 241 321 67 115 75 98 340 21 24 347 312 350 348 346 343 342 342 343 351 344 336 336 331 327 324 315 307 300 294 298 297 292 282 288 288
73 352 11 36 45 5 304 188 317 266 162 215 165 65 61 350 10 356 344 358 352 347 343 343 346 342 345 351 339 334 333 332 333 325 320 317 309 305 305 299 289 284 279 277
271 23 6 18 333 322 268 312 293 225 163 94 312 84 295 11 359 360 345 351 351 345 345 344 347 342 347 344 337 334 336 335 330 326 320 314 309 302 299 291 287 284 279 270
101 60 46 311 306 337 321 336 36 43 72 60 328 115 319 6 338 350 350 354 349 346 344 347 346 350 346 344 345 341 339 333 331 327 323 318 312 308 303 297 291 283 274 277
96 16 25 2 1 343 2 27 1 14 10 234 113 61 98 345 350 342 354 347 346 346 351 346 349 353 346 342 340 341 338 334 332 329 324 319 312 306 301 299 291 285 277 268
27 339 13 332 32 276 358 65 97 297 327 289 10 120 146 358 352 3 351 345 344 347 349 348 353 350 344 339 340 336 335 332 333 331 326 320 315 314 310 306 307 297 278 262
29 7 115 38 360 22 335 30 184 112 296 7 245 337 31 355 358 354 351 351 348 354 349 351 350 349 345 343 341 340 337 336 337 335 338 335 333 331 328 321 315 310 301 263
321 12 37 31 24 357 82 306 23 15 25 316 315 69 312 342 350 354 352 346 346 349 349 350 350 349 345 344 341 340 342 341 337 333 339 339 338 336 334 329 328 323 320 313
27 101 28 50 26 348 349 13 20 110 83 172 309 293 356 350 2 350 343 345 347 345 347 348 347 347 345 347 343 343 344 340 340 335 341 341 340 342 341 337 333 332 331 9
358 124 65 113 236 52 62 68 89 109 299 240 159 273 76 23 357 345 343 340 344 344 344 347 347 346 346 345 346 349 343 339 339 337 343 346 346 347 345 341 337 333 336 0
340 13 37 148 342 360 65 58 68 120 82 234 116 263 17 3 347 346 343 344 341 343 346 348 352 351 346 343 348 349 343 337 340 344 347 345 347 349 351 354 353 353 0 12
22 73 137 187 216 181 291 127 113 109 94 254 236 293 341 349 344 341 342 343 342 345 347 349 350 347 347 343 350 345 340 339 337 351 350 350 350 356 360 2 4 5 4 17
87 100 60 147 137 167 227 221 157 147 225 150 285 316 329 344 333 334 337 342 344 346 350 356 351 346 345 345 349 345 340 339 337 359 350 352 353 360 4 6 6 8 9 5
9 192 34 144 184 213 307 278 227 278 25 324 316 307 340 327 332 339 343 344 344 347 348 352 349 344 345 346 348 341 337 339 350 358 353 353 354 359 13 7 9 10 10 6
74 87 64 290 213 53 6 350 103 321 305 259 335 269 323 340 341 334 341 342 342 344 352 350 350 340 341 343 345 339 334 342 348 353 1 356 356 3 6 13 14 13 12 10
107 82 91 213 38 28 225 132 122 261 65 55 353 331 328 320 322 317 339 340 341 342 352 350 343 336 342 343 346 335 339 351 351 353 358 5 359 5 5 9 15 16 17 13
54 108 53 103 153 249 242 229 91 140 132 26 2 322 319 330 316 306 348 345 339 340 350 349 342 336 341 346 345 338 347 355 353 356 356 7 5 7 7 8 10 21 13 19
38 75 111 54 106 207 204 170 139 123 244 336 17 334 336 341 5 324 339 339 338 342 352 350 340 341 344 348 347 345 353 358 356 356 356 5 11 12 11 10 12 11 20 20
20 2 126 72 194 282 178 151 135 64 246 332 31 331 336 344 241 296 321 335 336 341 355 351 343 344 346 347 349 351 353 1 348 350 356 10 11 13 11 11 13 15 18 22
174 136 210 75 54 329 159 132 148 199 120 81 4 321 324 304 324 328 333 333 338 348 359 351 342 344 347 350 352 354 357 353 346 352 359 9 12 17 14 16 17 19 23 25
296 178 184 164 215 169 160 136 150 131 135 67 320 316 333 334 333 329 330 333 337 357 357 349 344 344 348 352 354 351 353 352 347 357 3 4 14 16 19 19 23 24 24 25
236 159 149 66 168 163 147 125 127 119 122 346 11 345 335 333 328 329 335 336 340 360 356 347 343 346 348 350 354 353 355 355 356 2 2 4 9 16 8 23 23 35 30 25
192 121 165 243 66 86 171 151 141 134 106 62 10 326 334 343 335 323 334 332 338 0 353 351 343 343 347 346 353 352 358 2 0 1 3 4 6 4 2 355 18 34 37 41
187 179 166 213 182 147 167 155 141 135 113 102 323 337 351 356 340 328 332 329 345 356 351 352 347 343 345 348 353 355 353 360 359 2 3 3 2 4 12 16 10 28 36 48